Observations for Trim Market St
| Time | AQI | Temp °C | Hum % | Pres Pa | CO μg/m³ | H₂S μg/m³ | NO μg/m³ | NO₂ μg/m³ | O₃ μg/m³ | SO₂ μg/m³ | PM1 μg/m³ | PM2.5 μg/m³ | PM10 μg/m³ |
|---|---|---|---|---|---|---|---|---|---|---|---|---|---|
| Thursday 13 August 2026 | |||||||||||||
| 03:36 | 2 | 21.6 | 73 | 41,034 | 0.08 | 1.67 | 1.14 | 25.53 | 37.01 | 0 | 1.43 | 3.4 | 5.7 |
| 03:35 | 2 | 21.5 | 73 | 41,484 | 0.08 | 0 | 1.12 | 15.73 | 50.52 | 0 | 4.28 | 6.3 | 9.36 |
| 03:30 | 2 | 21.5 | 72 | 43,194 | 0.09 | 0 | 1.15 | 17.15 | 44.24 | 0 | 3.56 | 5.83 | 8.75 |
| 03:29 | 2 | 21.5 | 72 | 43,420 | 0.08 | 0.29 | 1.16 | 19.14 | 46.08 | 0 | 4.28 | 5.35 | 8.14 |
| 03:28 | 2 | 21.5 | 72 | 43,775 | 0.08 | 0.88 | 1.21 | 23.31 | 38.11 | 0 | 3.56 | 4.88 | 7.53 |
| 03:25 | 2 | 21.5 | 72 | 45,381 | 0.08 | 2.83 | 1.15 | 22.82 | 43.17 | 0 | 1.43 | 4.4 | 6.92 |
| 03:18 | 2 | 21.4 | 72 | 47,778 | 0.08 | 0.01 | 1.14 | 18.77 | 44.34 | 0 | 3.56 | 4.91 | 8.15 |
| 03:17 | 2 | 21.4 | 72 | 48,080 | 0.08 | 1.51 | 1.12 | 21.93 | 44.97 | 0 | 4.28 | 5.88 | 10.62 |
| 03:16 | 2 | 21.4 | 72 | 48,428 | 0.07 | 0 | 1.12 | 19.33 | 45.55 | 0 | 3.56 | 4.91 | 8.76 |
| 03:15 | 2 | 21.4 | 72 | 48,758 | 0.07 | 2.3 | 1.11 | 23.92 | 42.05 | 0 | 2.85 | 4.44 | 7.53 |
| 03:13 | 2 | 21.4 | 71 | 49,383 | 0.06 | 0.61 | 1.09 | 20.86 | 42.51 | 0 | 5.7 | 6.86 | 10 |
| 03:11 | 2 | 21.4 | 71 | 49,904 | 0.09 | 0.77 | 1.09 | 19.46 | 44.05 | 0 | 2.14 | 4.45 | 6.91 |
| 03:10 | 2 | 21.3 | 71 | 50,225 | 0.1 | 1.75 | 1.09 | 25.27 | 47.64 | 0 | 3.56 | 5.91 | 8.77 |
| 03:09 | 2 | 21.4 | 71 | 50,516 | 0.09 | 0.27 | 1.09 | 18.99 | 46.32 | 0 | 2.85 | 4.94 | 7.53 |
| 03:08 | 2 | 21.3 | 71 | 50,848 | 0.11 | 1.54 | 1.1 | 22.37 | 47.03 | 0 | 3.56 | 4.95 | 7.53 |
| 03:07 | 2 | 21.3 | 71 | 51,209 | 0.11 | 1.75 | 1.08 | 22.13 | 45.85 | 0 | 3.56 | 5.92 | 8.77 |
| 03:03 | 2 | 21.3 | 70 | 51,971 | 0.04 | 3.54 | 1.07 | 26.29 | 47.94 | 0 | 3.56 | 6.43 | 10.03 |
| 03:01 | 3 | 21.3 | 70 | 52,421 | 0.05 | 2.78 | 1.07 | 24.7 | 48.05 | 0 | 2.85 | 4.98 | 8.16 |
| 02:58 | 3 | 21.3 | 70 | 53,168 | 0.05 | 1.14 | 1.06 | 21.53 | 50.93 | 0 | 3.56 | 5 | 7.53 |
| 02:51 | 3 | 21.3 | 69 | 54,526 | 0.04 | 1.3 | 1.05 | 23.92 | 40.4 | 0 | 2.85 | 4.54 | 7.53 |